EUTELSAT HOT BIRD 13C

Last updated on Nov. 18, 2019, 4:21 a.m. UTC

1 33459U 08065A   19320.85542376  .00000096  00000-0  00000-0 0  9993
2 33459   0.0686  64.0617 0002696 145.7686 166.7868  1.00273418 23238
UTC
Height (km)
Latitude
Longitude
Inclination
Orbital Period
UTC large
Height (km)
Speed (km/s)
/
Latitude / Longitude
Inclination (degrees)
Orbital Period (minutes)
Azimuth
Elevation
Range (km)
Doppler Factor
iOS Compass Heading
iOS Angle

Next 30 passes for location: Hong Kong

Rise time Rise Azimuth (degrees) Set time Set Azimuth (degrees) Duration Max altitude (degrees)

No matching passes for this satellites